Flight Information

DEPARTURE
SAN BERNARDINO, CA
Elevation:
1159
Runways:
6/24 - 10000x200 - CONC-E
ATIS:
124.175
Ground:
121.8
Tower:
119.45
DESTINATION
,
Elevation:
TPA:
1000 (est.)


6736 NM74° True-14° Var60° HDG

Flight Plan:
(click to file on line)

1. Type
2. Aircraft Identification
3. Aircraft Type / Special Equipment
4. True Airspeed
kts
5. Departure Airport
(ICAO code)
6. Arriving Airport
(ICAO code)
7. Cruising Altitude
ft
8. Alternate Airport
(ICAO code)
9. Route of Flight
10. Remarks


00:00:00 Departure ATIS: Destination ATIS:

Clearance Limit:
Route:
Altitude: Expect in minutes
Frequency:
Transponder: (7500 Hijack / 7600 Lost Comms / 7700 Emergency)


KSBD 101448Z 00000KT 10SM SKC 23/10 A3001
Time: 2020-07-10T14:48:00Z
1594394078
Winds: calm
Visibility: 10.0 sm
Clouds (AGL): SKC
Temperature: 23.0 C
Dew Point: 10.0 C
Pressure: 30.008858 in Hgbr


Notes:

Data extracted from FAA Digital Chart Supplement. Effective: 0901Z Thursday, May 21, 2020 to 0901Z Thursday, Jul 16, 2020
Current ATIS data is provided courtisy of PilotEdge.